[[{"header":{"parameterUnit":"m.s-1","parameterCategory":1,"la1":30.2991,"la2":30.254,"lo1":-89.0895,"lo2":-89.0444,"dy":0.0017,"dx":0.0017,"nx":28,"ny":28,"refTime":"2025-06-03T21:00:00:Z","depth":0,"parameterNumber":2,"parameterNumberName":"U-component_of_WINDS"},"data":[0,0,0,0,0,0,0,0,0,0,0,0,0,0,0,0,0,0,0,0,0,0,0,0,0,0,0,0,0,0,0,0,0,0,0,0,0,0,0,0,0,0,0,0,0,0,0,0,0,0,0,0,0,0,0,0,0,0,-3.4671,-3.467,0,-3.4629,-3.4628,-3.4628,-3.4543,-3.4542,-3.454,-3.4538,-3.4494,-3.4495,-3.4495,0,0,0,0,0,0,0,0,0,0,0,0,0,-3.468,-3.468,-3.4671,-3.467,-3.467,-3.4629,-3.4628,-3.4628,-3.4543,-3.4541,-3.4539,-3.4537,-3.4494,-3.4495,-3.4495,0,0,0,0,0,0,0,0,0,0,0,0,0,-3.4661,-3.468,-3.4671,-3.4623,-3.4618,-3.4629,-3.4628,-3.4628,-3.4544,-3.4541,-3.4539,-3.4537,-3.4494,-3.4495,-3.4495,-3.4549,0,0,-3.4497,-3.4497,0,0,0,0,0,0,0,0,-3.4662,-3.466,-3.4631,-3.4626,-3.4621,-3.4589,-3.4615,-3.4601,-3.4545,-3.4572,-3.4538,-3.4535,-3.4528,-3.4525,-3.4523,-3.4547,-3.4545,-3.4497,-3.4497,-3.4498,-3.4498,0,0,0,0,0,0,0,-3.4663,-3.4662,-3.4654,-3.463,-3.4624,-3.4604,-3.4598,-3.4612,-3.4564,-3.4569,-3.4563,-3.4559,-3.4525,-3.4523,-3.4521,-3.4544,-3.4497,-3.4498,-3.4498,-3.4498,-3.4612,-3.4615,0,0,0,0,0,0,-3.4671,-3.4663,-3.4655,-3.4653,-3.4636,-3.4606,-3.46,-3.4602,-3.4564,-3.4556,-3.4562,-3.4556,-3.4523,-3.4521,-3.4519,-3.458,-3.4498,-3.4498,-3.4499,-3.461,-3.4613,-3.4616,0,0,0,0,0,0,-3.4672,-3.4672,-3.4657,-3.4656,-3.4653,-3.4608,-3.4611,-3.4602,-3.46,-3.4558,-3.4549,-3.4568,-3.4521,-3.4519,-3.4543,-3.4577,-3.4498,-3.4499,-3.4607,-3.4611,-3.4614,-3.4702,0,0,0,0,0,0,-3.4673,-3.4672,-3.4692,-3.4658,-3.4653,-3.4681,-3.4613,-3.4603,-3.4601,-3.4593,-3.4562,-3.4554,-3.4519,-3.4542,-3.4543,-3.4577,-3.4499,-3.4603,-3.4608,-3.4613,-3.4696,-3.4709,-3.472,0,0,0,0,0,-3.4673,-3.4718,-3.4693,-3.4693,-3.4677,-3.4683,-3.4681,-3.4639,-3.4604,-3.4624,-3.4598,-3.4555,-3.4574,-3.4546,-3.4546,-3.458,-3.4601,-3.4607,-3.4613,-3.4691,-3.4706,-3.4719,0,0,0,0,0,0,-3.4756,-3.4712,-3.4684,-3.4719,-3.4706,-3.4669,-3.4692,-3.4657,-3.4652,-3.4645,-3.4593,-3.4587,-3.4618,-3.4602,-3.457,-3.4631,-3.4581,-3.4587,-3.464,-3.4655,-3.4666,-3.4668,-3.45,0,0,0,0,0,-3.4779,-3.4787,-3.4749,-3.4783,-3.4778,-3.4737,-3.4738,-3.4707,-3.4691,-3.4684,-3.4659,-3.4645,-3.4648,-3.4651,-3.4651,-3.4695,-3.4687,-3.4719,-3.473,-3.474,-3.4746,-3.4768,-3.4782,-3.4636,-3.4636,-3.4636,0,0,-3.4824,-3.4802,-3.481,-3.4799,-3.4785,-3.4795,-3.4732,-3.4745,-3.4753,-3.4686,-3.4707,-3.4689,-3.467,-3.4705,-3.4719,-3.4692,-3.4785,-3.4748,-3.4756,-3.4756,-3.4776,-3.479,-3.4802,-3.464,-3.4639,-3.4638,0,0,-3.4913,-3.4897,-3.4924,-3.4912,-3.4892,-3.4865,-3.4872,-3.4841,-3.4827,-3.4848,-3.4799,-3.4807,-3.4813,-3.4801,-3.4797,-3.4886,-3.4847,-3.4887,-3.4948,-3.4971,-3.4982,-3.4992,-3.5024,-3.5035,-3.4893,-3.4894,-3.4894,0,-3.4972,-3.4986,-3.4942,-3.4959,-3.4956,-3.4899,-3.4926,-3.4917,-3.4898,-3.4897,-3.4869,-3.4876,-3.4859,-3.489,-3.4912,-3.4911,-3.4917,-3.4889,-3.4984,-3.4994,-3.5002,-3.5032,-3.5044,-3.4899,-3.4898,-3.4897,-3.4897,0,-3.506,-3.507,-3.5095,-3.5079,-3.5079,-3.5102,-3.5062,-3.5068,-3.5038,-3.5015,-3.5038,-3.5016,-3.5011,-3.5017,-3.4988,-3.5045,-3.5029,-3.4994,-3.4941,-3.5022,-3.5049,-3.506,-3.4906,-3.4904,-3.4902,-3.4901,0,0,-3.5196,-3.5158,-3.5168,-3.516,-3.5136,-3.5143,-3.5164,-3.516,-3.5166,-3.5157,-3.5172,-3.5181,-3.5148,-3.5143,-3.5112,-3.5133,-3.5204,-3.5094,-3.5093,-3.5114,-3.5266,-3.5292,-3.5306,-3.518,-3.5182,-3.5184,-3.5267,0,-3.5278,-3.531,-3.5273,-3.5313,-3.5323,-3.527,-3.5289,-3.5276,-3.5256,-3.5261,-3.5238,-3.5245,-3.5201,-3.5198,-3.5216,-3.5192,-3.5234,-3.5186,-3.5194,-3.5195,-3.5198,-3.5319,-3.5346,-3.5426,-3.5278,-3.5279,-3.5281,0,-3.5376,-3.5372,-3.5414,-3.5389,-3.5391,-3.5408,-3.5403,-3.5409,-3.5394,-3.5378,-3.5374,-3.5339,-3.5358,-3.531,-3.5336,-3.5304,-3.5306,-3.5295,-3.5297,-3.5295,-3.5241,-3.5319,-3.545,-3.5462,-3.5297,-3.5295,-3.5294,0,-3.547,-3.5476,-3.5501,-3.5497,-3.5468,-3.5481,-3.547,-3.5453,-3.5454,-3.545,-3.545,-3.5449,-3.5447,-3.5447,-3.5413,-3.5381,-3.5444,-3.5392,-3.543,-3.5431,-3.5443,-3.5443,-3.5576,-3.5448,-3.5448,-3.5448,-3.5447,0,-3.5564,-3.5591,-3.5543,-3.5559,-3.5588,-3.5547,-3.5578,-3.5561,-3.5547,-3.5559,-3.5515,-3.5527,-3.5481,-3.5489,-3.5463,-3.5489,-3.5489,-3.5476,-3.5468,-3.5479,-3.548,-3.5477,-3.547,-3.5451,-3.545,-3.545,-3.5449,0,-3.5673,-3.5641,-3.5666,-3.5638,-3.5632,-3.5655,-3.5631,-3.5645,-3.5623,-3.5639,-3.564,-3.5606,-3.5613,-3.5579,-3.558,-3.5563,-3.5601,-3.5585,-3.5606,-3.56,-3.564,-3.5636,-3.5774,-3.579,-3.5654,-3.5656,-3.5657,0,-3.5734,-3.5753,-3.5729,-3.5734,-3.5725,-3.5734,-3.5735,-3.5696,-3.5699,-3.5686,-3.5702,-3.5706,-3.5706,-3.5721,-3.5695,-3.5697,-3.5679,-3.5728,-3.5679,-3.5689,-3.5678,-3.5677,-3.5679,-3.5737,-3.5739,-3.574,-3.5741,0,-3.5845,-3.5829,-3.5832,-3.5832,-3.5835,-3.5832,-3.5826,-3.5833,-3.5791,-3.5797,-3.5805,-3.5806,-3.5808,-3.5812,-3.5809,-3.5797,-3.5763,-3.5758,-3.5766,-3.5776,-3.5787,-3.5781,-3.5632,-3.5754,-3.5752,-3.5751,-3.5751,-3.575,-3.593,-3.5946,-3.5932,-3.5937,-3.593,-3.5926,-3.5938,-3.5918,-3.5924,-3.5922,-3.59,-3.5912,-3.5899,-3.5891,-3.5884,-3.5893,-3.587,-3.5883,-3.5886,-3.5889,-3.5896,-3.5788,-3.5892,-3.5892,-3.5892,-3.5891,-3.5891,0,-3.6039,-3.6027,-3.6034,-3.6027,-3.6033,-3.6001,-3.5994,-3.6,-3.6011,-3.6003,-3.6005,-3.6014,-3.6019,-3.5996,-3.5998,-3.601,-3.5994,-3.6012,-3.6009,-3.6007,-3.5916,-3.5908,-3.6024,-3.6024,-3.6024,-3.6024,-3.6024,-3.6024,-3.6095,-3.612,-3.6104,-3.6125,-3.6114,-3.6125,-3.6124,-3.6121,-3.6114,-3.6126,-3.613,-3.6116,-3.6102,-3.6103,-3.6106,-3.6099,-3.6101,-3.6124,-3.6112,-3.6027,-3.6014,-3.6001,-3.5993,-3.6126,-3.6126,-3.6202,-3.6203,-3.6203]},{"header":{"parameterUnit":"m.s-1","parameterCategory":1,"la1":30.2991,"la2":30.254,"lo1":-89.0895,"lo2":-89.0444,"dy":0.0017,"dx":0.0017,"nx":28,"ny":28,"refTime":"2025-06-03T21:00:00:Z","depth":0,"parameterNumber":3,"parameterNumberName":"V-component_of_WINDS"},"data":[0,0,0,0,0,0,0,0,0,0,0,0,0,0,0,0,0,0,0,0,0,0,0,0,0,0,0,0,0,0,0,0,0,0,0,0,0,0,0,0,0,0,0,0,0,0,0,0,0,0,0,0,0,0,0,0,0,0,3.1846,3.1846,0,3.185,3.185,3.185,3.1873,3.1874,3.1874,3.1875,3.1875,3.1874,3.1873,0,0,0,0,0,0,0,0,0,0,0,0,0,3.1853,3.1853,3.1846,3.1846,3.1846,3.185,3.185,3.185,3.1873,3.1874,3.1875,3.1875,3.1875,3.1874,3.1873,0,0,0,0,0,0,0,0,0,0,0,0,0,3.1853,3.1853,3.1846,3.1858,3.1859,3.185,3.185,3.185,3.1873,3.1874,3.1875,3.1876,3.1875,3.1874,3.1873,3.1852,0,0,3.1871,3.1871,0,0,0,0,0,0,0,0,3.1853,3.1853,3.1856,3.1857,3.1858,3.1862,3.1853,3.1851,3.1873,3.1868,3.1875,3.1876,3.1869,3.1869,3.1868,3.1852,3.1852,3.1871,3.187,3.187,3.187,0,0,0,0,0,0,0,3.1853,3.1852,3.1847,3.1856,3.1857,3.1862,3.1863,3.1852,3.1863,3.1868,3.187,3.187,3.187,3.1869,3.1868,3.1852,3.1871,3.187,3.187,3.1869,3.1819,3.1818,0,0,0,0,0,0,3.1852,3.1852,3.1847,3.1847,3.1858,3.1861,3.1862,3.186,3.1864,3.1865,3.187,3.1871,3.187,3.1869,3.1868,3.1844,3.187,3.1869,3.1869,3.182,3.1819,3.1818,0,0,0,0,0,0,3.1852,3.1851,3.1847,3.185,3.185,3.186,3.1857,3.186,3.1858,3.1865,3.1867,3.1866,3.187,3.1869,3.1856,3.1844,3.1869,3.1868,3.1821,3.182,3.1818,3.1794,0,0,0,0,0,0,3.1852,3.1851,3.1843,3.185,3.185,3.1836,3.1857,3.1859,3.1857,3.186,3.1862,3.1863,3.1871,3.1857,3.1855,3.1843,3.1868,3.1822,3.182,3.1819,3.1796,3.1792,3.1789,0,0,0,0,0,3.1852,3.1835,3.1843,3.1842,3.1841,3.1835,3.1835,3.1845,3.1856,3.1848,3.1853,3.1863,3.1846,3.1856,3.1854,3.1841,3.1823,3.1821,3.1819,3.1798,3.1793,3.1789,0,0,0,0,0,0,3.1824,3.1836,3.1845,3.183,3.1832,3.1839,3.1829,3.184,3.1837,3.1839,3.1851,3.1851,3.1836,3.1837,3.1848,3.1821,3.1836,3.1834,3.1821,3.1816,3.1813,3.1812,3.1867,0,0,0,0,0,3.1817,3.1812,3.1822,3.1808,3.1809,3.1819,3.1816,3.1825,3.1826,3.1827,3.183,3.183,3.1825,3.1821,3.1816,3.1797,3.1798,3.1788,3.1784,3.1781,3.1778,3.1769,3.1765,3.1812,3.1812,3.1812,0,0,3.18,3.1806,3.1802,3.1802,3.1805,3.1799,3.1819,3.1812,3.1807,3.1825,3.1813,3.1816,3.1817,3.1801,3.1794,3.1802,3.1766,3.1779,3.1776,3.1775,3.1767,3.1762,3.1759,3.181,3.181,3.1811,0,0,3.1767,3.1771,3.176,3.1763,3.1768,3.1775,3.1772,3.1779,3.1782,3.1771,3.1785,3.1779,3.177,3.177,3.1769,3.1739,3.1748,3.1737,3.1718,3.1709,3.1705,3.1702,3.1692,3.1688,3.1735,3.1735,3.1735,0,3.1745,3.1739,3.1753,3.1746,3.1745,3.1764,3.1753,3.1754,3.1755,3.1754,3.1764,3.1753,3.1755,3.174,3.1733,3.1731,3.1729,3.1736,3.1705,3.1702,3.1699,3.1689,3.1685,3.1733,3.1733,3.1734,3.1734,0,3.1712,3.1707,3.1698,3.1702,3.1701,3.1691,3.1703,3.17,3.1709,3.1715,3.1704,3.1708,3.1705,3.1702,3.1709,3.1688,3.1693,3.1703,3.1718,3.1693,3.1684,3.168,3.1731,3.1732,3.1732,3.1733,0,0,3.166,3.1674,3.167,3.1673,3.168,3.1676,3.1667,3.1667,3.1664,3.1665,3.1658,3.1651,3.1661,3.166,3.1668,3.166,3.1637,3.1672,3.1672,3.1665,3.1614,3.1606,3.1602,3.1644,3.1643,3.1643,3.1614,0,3.1629,3.1617,3.163,3.1615,3.161,3.1629,3.1622,3.1625,3.1631,3.1628,3.1634,3.1629,3.1643,3.1643,3.1636,3.1641,3.1627,3.1643,3.1636,3.1636,3.1635,3.1597,3.1588,3.1561,3.1611,3.161,3.161,0,3.159,3.1592,3.1577,3.1587,3.1586,3.1579,3.158,3.1577,3.1581,3.1586,3.1586,3.1597,3.1589,3.1605,3.1594,3.1605,3.1603,3.1605,3.1605,3.1604,3.1621,3.1594,3.1552,3.1548,3.1604,3.1605,3.1605,0,3.1554,3.1552,3.1544,3.1545,3.1556,3.1552,3.1556,3.1561,3.156,3.1561,3.1561,3.1559,3.1559,3.1557,3.1568,3.1578,3.1555,3.1571,3.1558,3.1558,3.1552,3.1552,3.1508,3.1551,3.1551,3.1551,3.1551,0,3.1517,3.1507,3.1528,3.1522,3.1512,3.1527,3.1516,3.1522,3.1527,3.1522,3.1538,3.1533,3.1547,3.1543,3.1551,3.1541,3.154,3.1543,3.1545,3.1542,3.1541,3.154,3.1542,3.155,3.155,3.1551,3.1551,0,3.1474,3.1487,3.1479,3.1492,3.1495,3.1486,3.1496,3.1491,3.15,3.1494,3.1493,3.1505,3.1502,3.1513,3.151,3.1516,3.1501,3.1506,3.15,3.1502,3.1488,3.1489,3.1442,3.1436,3.1483,3.1482,3.1482,0,3.1449,3.1443,3.1455,3.1454,3.1459,3.1456,3.1457,3.1472,3.1471,3.1477,3.1471,3.147,3.1469,3.1463,3.1471,3.147,3.1475,3.1459,3.1475,3.1472,3.1475,3.1475,3.1475,3.1455,3.1454,3.1454,3.1453,0,3.1405,3.1412,3.1413,3.1416,3.1417,3.1419,3.1423,3.1421,3.1438,3.1436,3.1434,3.1434,3.1434,3.1432,3.1433,3.1436,3.1447,3.1449,3.1446,3.1441,3.1438,3.144,3.1491,3.1449,3.145,3.145,3.145,3.145,3.137,3.1366,3.1374,3.1375,3.138,3.1383,3.138,3.1389,3.1388,3.139,3.1399,3.1396,3.1401,3.1404,3.1406,3.1403,3.1411,3.1406,3.1405,3.1404,3.1402,3.144,3.1404,3.1404,3.1404,3.1404,3.1404,0,3.1326,3.1334,3.1334,3.134,3.134,3.1354,3.1359,3.1358,3.1356,3.1361,3.1361,3.1359,3.1358,3.1367,3.1367,3.1363,3.1368,3.1363,3.1363,3.1363,3.1395,3.1397,3.1358,3.1358,3.1358,3.1359,3.1359,3.1359,3.1304,3.1297,3.1306,3.1302,3.1309,3.1307,3.1309,3.1313,3.1317,3.1315,3.1316,3.1322,3.1329,3.133,3.133,3.1332,3.1331,3.1324,3.1328,3.1357,3.1361,3.1365,3.1368,3.1323,3.1323,3.1297,3.1297,3.1297]}]]